Time,TemperatureF,DewpointF,PressureIn,WindDirection,WindDirectionDegrees,WindSpeedMPH,WindSpeedGustMPH,Humidity,HourlyPrecipIn,Conditions,Clouds,dailyrainin,SoftwareType,DateUTC
2013-02-22 00:00:00,23.9,14.9,30.29,North,354,3.0,3.0,68,0.00,,,0.00,WeatherCatV1.13B119,2013-02-22 05:00:00,
2013-02-22 00:05:00,23.9,14.9,30.30,NNE,15,2.0,3.0,68,0.00,,,0.00,WeatherCatV1.13B119,2013-02-22 05:05:00,
2013-02-22 00:10:00,23.9,15.2,30.30,NNW,339,2.0,3.0,69,0.00,,,0.00,WeatherCatV1.13B119,2013-02-22 05:10:00,
2013-02-22 00:15:00,23.9,15.2,30.30,North,7,0.0,2.0,69,0.00,,,0.00,WeatherCatV1.13B119,2013-02-22 05:15:00,
2013-02-22 00:20:00,23.9,15.2,30.30,NNW,332,3.0,3.0,69,0.00,,,0.00,WeatherCatV1.13B119,2013-02-22 05:20:00,
2013-02-22 00:25:00,24.0,15.3,30.30,North,11,3.0,5.0,69,0.00,,,0.00,WeatherCatV1.13B119,2013-02-22 05:25:00,
2013-02-22 00:30:00,24.1,15.4,30.29,NNE,21,3.0,3.0,69,0.00,,,0.00,WeatherCatV1.13B119,2013-02-22 05:30:00,
2013-02-22 00:35:00,24.1,15.4,30.29,NNE,17,2.0,3.0,69,0.00,,,0.00,WeatherCatV1.13B119,2013-02-22 05:35:00,
2013-02-22 00:40:00,24.2,15.5,30.29,NNW,335,2.0,5.0,69,0.00,,,0.00,WeatherCatV1.13B119,2013-02-22 05:40:00,
2013-02-22 00:45:00,24.3,15.6,30.29,North,9,1.0,2.0,69,0.00,,,0.00,WeatherCatV1.13B119,2013-02-22 05:45:00,
2013-02-22 00:50:00,24.3,15.6,30.30,NNW,346,3.0,4.0,69,0.00,,,0.00,WeatherCatV1.13B119,2013-02-22 05:50:00,
2013-02-22 00:55:00,24.3,15.6,30.30,NNW,346,1.0,2.0,69,0.00,,,0.00,WeatherCatV1.13B119,2013-02-22 05:55:00,
2013-02-22 01:00:00,24.3,15.6,30.30,North,6,1.0,4.0,69,0.00,,,0.00,WeatherCatV1.13B119,2013-02-22 06:00:00,
2013-02-22 01:05:00,24.3,15.6,30.30,North,358,1.0,2.0,69,0.00,,,0.00,WeatherCatV1.13B119,2013-02-22 06:05:00,
2013-02-22 01:10:00,24.3,15.6,30.31,North,358,1.0,1.0,69,0.00,,,0.00,WeatherCatV1.13B119,2013-02-22 06:10:00,
2013-02-22 01:15:00,24.3,15.6,30.31,NNW,341,1.0,3.0,69,0.00,,,0.00,WeatherCatV1.13B119,2013-02-22 06:15:00,
2013-02-22 01:20:00,24.3,15.6,30.31,NNW,341,2.0,2.0,69,0.00,,,0.00,WeatherCatV1.13B119,2013-02-22 06:20:00,
2013-02-22 01:25:00,24.3,15.6,30.31,North,352,0.0,1.0,69,0.00,,,0.00,WeatherCatV1.13B119,2013-02-22 06:25:00,
2013-02-22 01:30:00,24.3,15.9,30.31,North,352,1.0,1.0,70,0.00,,,0.00,WeatherCatV1.13B119,2013-02-22 06:30:00,
2013-02-22 01:35:00,24.3,15.9,30.31,North,351,1.0,2.0,70,0.00,,,0.00,WeatherCatV1.13B119,2013-02-22 06:35:00,
2013-02-22 01:40:00,24.3,15.9,30.32,NNW,339,0.0,2.0,70,0.00,,,0.00,WeatherCatV1.13B119,2013-02-22 06:40:00,
2013-02-22 01:45:00,24.3,15.9,30.32,North,359,1.0,2.0,70,0.00,,,0.00,WeatherCatV1.13B119,2013-02-22 06:45:00,
2013-02-22 01:50:00,24.3,16.3,30.31,North,0,1.0,2.0,71,0.00,,,0.00,WeatherCatV1.13B119,2013-02-22 06:50:00,
2013-02-22 01:55:00,24.4,16.4,30.30,NNE,18,1.0,3.0,71,0.00,,,0.00,WeatherCatV1.13B119,2013-02-22 06:55:00,
2013-02-22 02:00:00,24.4,16.4,30.30,North,10,0.0,3.0,71,0.00,,,0.00,WeatherCatV1.13B119,2013-02-22 07:00:00,
2013-02-22 02:05:00,24.5,16.5,30.30,North,357,1.0,2.0,71,0.00,,,0.00,WeatherCatV1.13B119,2013-02-22 07:05:00,
2013-02-22 02:10:00,24.6,16.6,30.30,NNE,21,2.0,3.0,71,0.00,,,0.00,WeatherCatV1.13B119,2013-02-22 07:10:00,
2013-02-22 02:15:00,24.6,16.6,30.31,NNE,21,1.0,2.0,71,0.00,,,0.00,WeatherCatV1.13B119,2013-02-22 07:15:00,
2013-02-22 02:20:00,24.6,16.6,30.32,NNE,21,2.0,2.0,71,0.00,,,0.00,WeatherCatV1.13B119,2013-02-22 07:20:00,
2013-02-22 02:25:00,24.6,16.6,30.31,NNE,13,1.0,2.0,71,0.00,,,0.00,WeatherCatV1.13B119,2013-02-22 07:25:00,
2013-02-22 02:30:00,24.6,16.9,30.31,North,357,2.0,2.0,72,0.00,,,0.00,WeatherCatV1.13B119,2013-02-22 07:30:00,
2013-02-22 02:35:00,24.6,16.9,30.32,NW,321,3.0,3.0,72,0.00,,,0.00,WeatherCatV1.13B119,2013-02-22 07:35:00,
2013-02-22 02:40:00,24.7,17.0,30.33,North,356,2.0,2.0,72,0.00,,,0.00,WeatherCatV1.13B119,2013-02-22 07:40:00,
2013-02-22 02:45:00,24.7,17.0,30.33,North,358,0.0,0.0,72,0.00,,,0.00,WeatherCatV1.13B119,2013-02-22 07:45:00,
2013-02-22 02:50:00,24.7,17.0,30.33,North,358,0.0,2.0,72,0.00,,,0.00,WeatherCatV1.13B119,2013-02-22 07:50:00,
2013-02-22 02:55:00,24.6,16.9,30.33,North,358,0.0,0.0,72,0.00,,,0.00,WeatherCatV1.13B119,2013-02-22 07:55:00,
2013-02-22 03:00:00,24.5,16.8,30.33,North,358,0.0,1.0,72,0.00,,,0.00,WeatherCatV1.13B119,2013-02-22 08:00:00,
2013-02-22 03:05:00,24.5,16.8,30.34,NNE,28,1.0,2.0,72,0.00,,,0.00,WeatherCatV1.13B119,2013-02-22 08:05:00,
2013-02-22 03:10:00,24.6,17.2,30.35,NNE,28,0.0,1.0,73,0.00,,,0.00,WeatherCatV1.13B119,2013-02-22 08:10:00,
2013-02-22 03:15:00,24.5,17.1,30.35,NNE,28,0.0,1.0,73,0.00,,,0.00,WeatherCatV1.13B119,2013-02-22 08:15:00,
2013-02-22 03:20:00,24.5,17.1,30.34,NNE,28,0.0,1.0,73,0.00,,,0.00,WeatherCatV1.13B119,2013-02-22 08:20:00,
2013-02-22 03:25:00,24.5,17.1,30.34,NNE,28,0.0,3.0,73,0.00,,,0.00,WeatherCatV1.13B119,2013-02-22 08:25:00,
2013-02-22 03:30:00,24.4,17.3,30.33,NNE,28,0.0,2.0,74,0.00,,,0.00,WeatherCatV1.13B119,2013-02-22 08:30:00,
2013-02-22 03:35:00,24.4,17.3,30.34,North,9,0.0,4.0,74,0.00,,,0.00,WeatherCatV1.13B119,2013-02-22 08:35:00,
2013-02-22 03:40:00,24.5,17.7,30.33,North,8,0.0,1.0,75,0.00,,,0.00,WeatherCatV1.13B119,2013-02-22 08:40:00,
2013-02-22 03:45:00,24.5,17.7,30.33,North,352,2.0,3.0,75,0.00,,,0.00,WeatherCatV1.13B119,2013-02-22 08:45:00,
2013-02-22 03:50:00,24.7,17.9,30.33,NNE,17,0.0,2.0,75,0.00,,,0.00,WeatherCatV1.13B119,2013-02-22 08:50:00,
2013-02-22 03:55:00,24.8,18.0,30.33,NNE,13,3.0,3.0,75,0.00,,,0.00,WeatherCatV1.13B119,2013-02-22 08:55:00,
2013-02-22 04:00:00,24.9,18.1,30.33,North,11,3.0,3.0,75,0.00,,,0.00,WeatherCatV1.13B119,2013-02-22 09:00:00,
2013-02-22 04:05:00,24.9,18.1,30.33,North,359,3.0,6.0,75,0.00,,,0.00,WeatherCatV1.13B119,2013-02-22 09:05:00,
2013-02-22 04:10:00,25.0,18.2,30.33,NW,323,1.0,4.0,75,0.00,,,0.00,WeatherCatV1.13B119,2013-02-22 09:10:00,
2013-02-22 04:15:00,25.1,18.3,30.34,North,9,1.0,6.0,75,0.00,,,0.00,WeatherCatV1.13B119,2013-02-22 09:15:00,
2013-02-22 04:20:00,25.2,18.4,30.34,North,359,0.0,2.0,75,0.00,,,0.00,WeatherCatV1.13B119,2013-02-22 09:20:00,
2013-02-22 04:25:00,25.2,18.7,30.34,North,355,1.0,2.0,76,0.00,,,0.00,WeatherCatV1.13B119,2013-02-22 09:25:00,
2013-02-22 04:30:00,25.3,18.8,30.35,North,11,1.0,2.0,76,0.00,,,0.00,WeatherCatV1.13B119,2013-02-22 09:30:00,
2013-02-22 04:35:00,25.2,18.7,30.35,NNE,21,0.0,1.0,76,0.00,,,0.00,WeatherCatV1.13B119,2013-02-22 09:35:00,
2013-02-22 04:40:00,25.2,19.0,30.36,North,7,2.0,3.0,77,0.00,,,0.00,WeatherCatV1.13B119,2013-02-22 09:40:00,
2013-02-22 04:45:00,25.2,19.0,30.36,North,7,1.0,2.0,77,0.00,,,0.00,WeatherCatV1.13B119,2013-02-22 09:45:00,
2013-02-22 04:50:00,25.2,19.0,30.36,North,7,1.0,3.0,77,0.00,,,0.00,WeatherCatV1.13B119,2013-02-22 09:50:00,
2013-02-22 04:55:00,25.2,19.0,30.36,North,7,1.0,2.0,77,0.00,,,0.00,WeatherCatV1.13B119,2013-02-22 09:55:00,
2013-02-22 05:00:00,25.2,19.0,30.35,NNW,346,0.0,2.0,77,0.00,,,0.00,WeatherCatV1.13B119,2013-02-22 10:00:00,
2013-02-22 05:05:00,25.3,19.1,30.35,North,350,3.0,4.0,77,0.00,,,0.00,WeatherCatV1.13B119,2013-02-22 10:05:00,
2013-02-22 05:10:00,25.4,19.2,30.36,NE,40,1.0,3.0,77,0.00,,,0.00,WeatherCatV1.13B119,2013-02-22 10:10:00,
2013-02-22 05:15:00,25.4,19.2,30.35,NNW,347,0.0,4.0,77,0.00,,,0.00,WeatherCatV1.13B119,2013-02-22 10:15:00,
2013-02-22 05:20:00,25.5,19.3,30.35,NNE,29,1.0,2.0,77,0.00,,,0.00,WeatherCatV1.13B119,2013-02-22 10:20:00,
2013-02-22 05:25:00,25.4,19.2,30.36,NNE,13,1.0,5.0,77,0.00,,,0.00,WeatherCatV1.13B119,2013-02-22 10:25:00,
2013-02-22 05:30:00,25.4,19.2,30.35,NNE,13,1.0,2.0,77,0.00,,,0.00,WeatherCatV1.13B119,2013-02-22 10:30:00,
2013-02-22 05:35:00,25.3,19.4,30.36,NNE,25,1.0,2.0,78,0.00,,,0.00,WeatherCatV1.13B119,2013-02-22 10:35:00,
2013-02-22 05:40:00,25.3,19.4,30.37,NNE,25,0.0,2.0,78,0.00,,,0.00,WeatherCatV1.13B119,2013-02-22 10:40:00,
2013-02-22 05:45:00,25.3,19.4,30.38,NE,53,1.0,3.0,78,0.00,,,0.00,WeatherCatV1.13B119,2013-02-22 10:45:00,
2013-02-22 05:50:00,25.3,19.4,30.38,NE,53,1.0,2.0,78,0.00,,,0.00,WeatherCatV1.13B119,2013-02-22 10:50:00,
2013-02-22 05:55:00,25.3,19.4,30.38,NE,53,0.0,1.0,78,0.00,,,0.00,WeatherCatV1.13B119,2013-02-22 10:55:00,
2013-02-22 06:00:00,25.3,19.4,30.39,NE,53,0.0,0.0,78,0.00,,,0.00,WeatherCatV1.13B119,2013-02-22 11:00:00,
2013-02-22 06:05:00,25.3,19.4,30.39,NE,53,0.0,0.0,78,0.00,,,0.00,WeatherCatV1.13B119,2013-02-22 11:05:00,
2013-02-22 06:10:00,25.2,19.3,30.39,NE,53,0.0,1.0,78,0.00,,,0.00,WeatherCatV1.13B119,2013-02-22 11:10:00,
2013-02-22 06:15:00,25.2,19.6,30.39,NE,53,0.0,0.0,79,0.00,,,0.00,WeatherCatV1.13B119,2013-02-22 11:15:00,
2013-02-22 06:20:00,25.2,19.6,30.40,NE,53,1.0,1.0,79,0.00,,,0.00,WeatherCatV1.13B119,2013-02-22 11:20:00,
2013-02-22 06:25:00,25.2,19.6,30.40,NE,53,0.0,1.0,79,0.00,,,0.00,WeatherCatV1.13B119,2013-02-22 11:25:00,
2013-02-22 06:30:00,25.3,19.7,30.40,NE,53,0.0,0.0,79,0.00,,,0.00,WeatherCatV1.13B119,2013-02-22 11:30:00,
2013-02-22 06:35:00,25.3,19.7,30.41,NE,53,0.0,0.0,79,0.00,,,0.00,WeatherCatV1.13B119,2013-02-22 11:35:00,
2013-02-22 06:40:00,25.3,19.7,30.40,North,9,1.0,3.0,79,0.00,,,0.00,WeatherCatV1.13B119,2013-02-22 11:40:00,
2013-02-22 06:45:00,25.4,19.8,30.40,North,9,0.0,2.0,79,0.00,,,0.00,WeatherCatV1.13B119,2013-02-22 11:45:00,
2013-02-22 06:50:00,25.4,19.8,30.41,North,9,0.0,1.0,79,0.00,,,0.00,WeatherCatV1.13B119,2013-02-22 11:50:00,
2013-02-22 06:55:00,25.4,19.8,30.41,North,9,0.0,0.0,79,0.00,,,0.00,WeatherCatV1.13B119,2013-02-22 11:55:00,
2013-02-22 07:00:00,25.5,19.9,30.41,North,9,0.0,1.0,79,0.00,,,0.00,WeatherCatV1.13B119,2013-02-22 12:00:00,
2013-02-22 07:05:00,25.5,19.9,30.40,North,9,0.0,1.0,79,0.00,,,0.00,WeatherCatV1.13B119,2013-02-22 12:05:00,
2013-02-22 07:10:00,25.6,20.0,30.41,North,9,1.0,1.0,79,0.00,,,0.00,WeatherCatV1.13B119,2013-02-22 12:10:00,
2013-02-22 07:15:00,25.6,20.0,30.41,North,9,2.0,2.0,79,0.00,,,0.00,WeatherCatV1.13B119,2013-02-22 12:15:00,
2013-02-22 07:20:00,25.7,20.1,30.41,NNE,15,0.0,1.0,79,0.00,,,0.00,WeatherCatV1.13B119,2013-02-22 12:20:00,
2013-02-22 07:25:00,25.8,19.9,30.41,NNE,20,3.0,3.0,78,0.00,,,0.00,WeatherCatV1.13B119,2013-02-22 12:25:00,
2013-02-22 07:30:00,25.9,20.0,30.41,NNE,20,2.0,3.0,78,0.00,,,0.00,WeatherCatV1.13B119,2013-02-22 12:30:00,
2013-02-22 07:35:00,26.0,20.1,30.41,NNE,20,0.0,0.0,78,0.00,,,0.00,WeatherCatV1.13B119,2013-02-22 12:35:00,
2013-02-22 07:40:00,26.1,20.2,30.41,NNE,20,1.0,3.0,78,0.00,,,0.00,WeatherCatV1.13B119,2013-02-22 12:40:00,
2013-02-22 07:45:00,26.2,20.3,30.41,NNE,20,0.0,1.0,78,0.00,,,0.00,WeatherCatV1.13B119,2013-02-22 12:45:00,
2013-02-22 07:50:00,26.3,20.1,30.41,NNE,20,0.0,1.0,77,0.00,,,0.00,WeatherCatV1.13B119,2013-02-22 12:50:00,
2013-02-22 07:55:00,26.4,20.2,30.42,NNE,20,0.0,2.0,77,0.00,,,0.00,WeatherCatV1.13B119,2013-02-22 12:55:00,
2013-02-22 08:00:00,26.6,20.4,30.42,NNE,20,2.0,3.0,77,0.00,,,0.00,WeatherCatV1.13B119,2013-02-22 13:00:00,
2013-02-22 08:05:00,26.7,20.2,30.42,NNE,20,1.0,1.0,76,0.00,,,0.00,WeatherCatV1.13B119,2013-02-22 13:05:00,
2013-02-22 08:10:00,26.9,20.4,30.42,ENE,61,0.0,1.0,76,0.00,,,0.00,WeatherCatV1.13B119,2013-02-22 13:10:00,
2013-02-22 08:15:00,27.0,20.5,30.43,ENE,61,1.0,3.0,76,0.00,,,0.00,WeatherCatV1.13B119,2013-02-22 13:15:00,
2013-02-22 08:20:00,27.1,20.2,30.43,NNE,17,0.0,1.0,75,0.00,,,0.00,WeatherCatV1.13B119,2013-02-22 13:20:00,
2013-02-22 08:25:00,27.2,20.7,30.42,NE,46,2.0,2.0,76,0.00,,,0.00,WeatherCatV1.13B119,2013-02-22 13:25:00,
2013-02-22 08:30:00,27.4,20.5,30.42,NE,46,1.0,1.0,75,0.00,,,0.00,WeatherCatV1.13B119,2013-02-22 13:30:00,
2013-02-22 08:35:00,27.6,20.7,30.42,NE,50,1.0,2.0,75,0.00,,,0.00,WeatherCatV1.13B119,2013-02-22 13:35:00,
2013-02-22 08:40:00,27.7,20.5,30.42,NNE,32,3.0,3.0,74,0.00,,,0.00,WeatherCatV1.13B119,2013-02-22 13:40:00,
2013-02-22 08:45:00,27.8,20.6,30.42,NNE,19,2.0,3.0,74,0.00,,,0.00,WeatherCatV1.13B119,2013-02-22 13:45:00,
2013-02-22 08:50:00,27.9,21.0,30.42,NNE,18,0.0,1.0,75,0.00,,,0.00,WeatherCatV1.13B119,2013-02-22 13:50:00,
2013-02-22 08:55:00,28.2,21.0,30.42,NNE,17,0.0,2.0,74,0.00,,,0.00,WeatherCatV1.13B119,2013-02-22 13:55:00,
2013-02-22 09:00:00,28.4,20.9,30.42,NE,37,1.0,2.0,73,0.00,,,0.00,WeatherCatV1.13B119,2013-02-22 14:00:00,
2013-02-22 09:05:00,28.6,21.1,30.41,East,86,1.0,3.0,73,0.00,,,0.00,WeatherCatV1.13B119,2013-02-22 14:05:00,
2013-02-22 09:10:00,28.7,20.8,30.42,NNE,21,1.0,5.0,72,0.00,,,0.00,WeatherCatV1.13B119,2013-02-22 14:10:00,
2013-02-22 09:15:00,28.7,20.5,30.42,NNE,15,3.0,3.0,71,0.00,,,0.00,WeatherCatV1.13B119,2013-02-22 14:15:00,
2013-02-22 09:20:00,28.7,20.5,30.42,NNE,21,1.0,6.0,71,0.00,,,0.00,WeatherCatV1.13B119,2013-02-22 14:20:00,
2013-02-22 09:25:00,28.9,21.0,30.41,NNE,21,0.0,2.0,72,0.00,,,0.00,WeatherCatV1.13B119,2013-02-22 14:25:00,
2013-02-22 09:30:00,29.4,21.2,30.41,NE,46,1.0,1.0,71,0.00,,,0.00,WeatherCatV1.13B119,2013-02-22 14:30:00,
2013-02-22 09:35:00,29.9,21.3,30.41,NE,48,1.0,2.0,70,0.00,,,0.00,WeatherCatV1.13B119,2013-02-22 14:35:00,
2013-02-22 09:40:00,30.3,21.4,30.41,NE,48,0.0,2.0,69,0.00,,,0.00,WeatherCatV1.13B119,2013-02-22 14:40:00,
2013-02-22 09:45:00,30.4,20.8,30.41,NE,48,0.0,3.0,67,0.00,,,0.00,WeatherCatV1.13B119,2013-02-22 14:45:00,
2013-02-22 09:50:00,30.2,20.9,30.41,NNE,32,0.0,1.0,68,0.00,,,0.00,WeatherCatV1.13B119,2013-02-22 14:50:00,
2013-02-22 09:55:00,30.3,21.0,30.41,NNE,12,1.0,3.0,68,0.00,,,0.00,WeatherCatV1.13B119,2013-02-22 14:55:00,
2013-02-22 10:00:00,30.4,21.1,30.40,North,5,1.0,3.0,68,0.00,,,0.00,WeatherCatV1.13B119,2013-02-22 15:00:00,
2013-02-22 10:05:00,30.7,21.1,30.40,NE,50,1.0,2.0,67,0.00,,,0.00,WeatherCatV1.13B119,2013-02-22 15:05:00,
2013-02-22 10:10:00,31.1,21.8,30.40,East,79,0.0,2.0,68,0.00,,,0.00,WeatherCatV1.13B119,2013-02-22 15:10:00,
2013-02-22 10:15:00,31.3,21.3,30.41,NE,34,1.0,1.0,66,0.00,,,0.00,WeatherCatV1.13B119,2013-02-22 15:15:00,
2013-02-22 10:20:00,31.4,21.4,30.41,NNE,33,0.0,1.0,66,0.00,,,0.00,WeatherCatV1.13B119,2013-02-22 15:20:00,
2013-02-22 10:25:00,31.9,21.9,30.41,NE,43,0.0,2.0,66,0.00,,,0.00,WeatherCatV1.13B119,2013-02-22 15:25:00,
2013-02-22 10:30:00,32.5,21.7,30.40,NNE,15,1.0,1.0,64,0.00,,,0.00,WeatherCatV1.13B119,2013-02-22 15:30:00,
2013-02-22 10:35:00,32.7,21.9,30.40,NNE,25,0.0,1.0,64,0.00,,,0.00,WeatherCatV1.13B119,2013-02-22 15:35:00,
2013-02-22 10:40:00,33.0,22.2,30.41,ESE,115,1.0,1.0,64,0.00,,,0.00,WeatherCatV1.13B119,2013-02-22 15:40:00,
2013-02-22 10:45:00,33.2,22.0,30.41,ESE,104,1.0,3.0,63,0.00,,,0.00,WeatherCatV1.13B119,2013-02-22 15:45:00,
2013-02-22 10:50:00,33.4,21.8,30.41,ENE,60,0.0,2.0,62,0.00,,,0.00,WeatherCatV1.13B119,2013-02-22 15:50:00,
2013-02-22 10:55:00,33.5,21.9,30.41,SSE,156,0.0,1.0,62,0.00,,,0.00,WeatherCatV1.13B119,2013-02-22 15:55:00,
2013-02-22 11:00:00,33.8,22.2,30.41,NNE,28,1.0,3.0,62,0.00,,,0.00,WeatherCatV1.13B119,2013-02-22 16:00:00,
2013-02-22 11:05:00,34.0,22.0,30.41,ESE,113,1.0,2.0,61,0.00,,,0.00,WeatherCatV1.13B119,2013-02-22 16:05:00,
2013-02-22 11:10:00,34.6,22.2,30.41,NE,46,1.0,3.0,60,0.00,,,0.00,WeatherCatV1.13B119,2013-02-22 16:10:00,
2013-02-22 11:15:00,35.1,22.2,30.40,ESE,123,1.0,3.0,59,0.00,,,0.00,WeatherCatV1.13B119,2013-02-22 16:15:00,
2013-02-22 11:20:00,35.6,22.7,30.41,ENE,74,1.0,3.0,59,0.00,,,0.00,WeatherCatV1.13B119,2013-02-22 16:20:00,
2013-02-22 11:25:00,35.8,22.5,30.41,North,5,2.0,5.0,58,0.00,,,0.00,WeatherCatV1.13B119,2013-02-22 16:25:00,
2013-02-22 11:30:00,35.6,22.3,30.40,East,92,3.0,5.0,58,0.00,,,0.00,WeatherCatV1.13B119,2013-02-22 16:30:00,
2013-02-22 11:35:00,35.6,22.3,30.40,NNE,26,1.0,3.0,58,0.00,,,0.00,WeatherCatV1.13B119,2013-02-22 16:35:00,
2013-02-22 11:40:00,35.7,22.4,30.40,NNE,25,1.0,2.0,58,0.00,,,0.00,WeatherCatV1.13B119,2013-02-22 16:40:00,
2013-02-22 11:45:00,35.8,22.1,30.40,NNE,32,2.0,2.0,57,0.00,,,0.00,WeatherCatV1.13B119,2013-02-22 16:45:00,
2013-02-22 11:50:00,35.9,22.2,30.40,NE,38,2.0,3.0,57,0.00,,,0.00,WeatherCatV1.13B119,2013-02-22 16:50:00,
2013-02-22 11:55:00,35.9,22.2,30.39,NNE,33,3.0,3.0,57,0.00,,,0.00,WeatherCatV1.13B119,2013-02-22 16:55:00,
2013-02-22 12:00:00,35.8,22.5,30.40,ENE,57,1.0,3.0,58,0.00,,,0.00,WeatherCatV1.13B119,2013-02-22 17:00:00,
2013-02-22 12:05:00,35.8,22.1,30.39,NE,43,2.0,3.0,57,0.00,,,0.00,WeatherCatV1.13B119,2013-02-22 17:05:00,
2013-02-22 12:10:00,35.8,22.1,30.39,SE,139,1.0,6.0,57,0.00,,,0.00,WeatherCatV1.13B119,2013-02-22 17:10:00,
2013-02-22 12:15:00,36.0,22.3,30.39,NE,44,1.0,5.0,57,0.00,,,0.00,WeatherCatV1.13B119,2013-02-22 17:15:00,
2013-02-22 12:20:00,36.3,22.5,30.37,NE,43,1.0,5.0,57,0.00,,,0.00,WeatherCatV1.13B119,2013-02-22 17:20:00,
2013-02-22 12:25:00,36.2,22.5,30.37,SE,131,2.0,3.0,57,0.00,,,0.00,WeatherCatV1.13B119,2013-02-22 17:25:00,
2013-02-22 12:30:00,36.2,22.0,30.37,East,98,2.0,6.0,56,0.00,,,0.00,WeatherCatV1.13B119,2013-02-22 17:30:00,
2013-02-22 12:35:00,36.2,22.5,30.38,ENE,75,2.0,3.0,57,0.00,,,0.00,WeatherCatV1.13B119,2013-02-22 17:35:00,
2013-02-22 12:40:00,36.2,22.5,30.37,SSW,198,4.0,4.0,57,0.00,,,0.00,WeatherCatV1.13B119,2013-02-22 17:40:00,
2013-02-22 12:45:00,36.4,22.6,30.37,NE,55,2.0,2.0,57,0.00,,,0.00,WeatherCatV1.13B119,2013-02-22 17:45:00,
2013-02-22 12:50:00,36.4,22.6,30.37,East,82,2.0,2.0,57,0.00,,,0.00,WeatherCatV1.13B119,2013-02-22 17:50:00,
2013-02-22 12:55:00,36.4,22.6,30.37,NE,43,2.0,3.0,57,0.00,,,0.00,WeatherCatV1.13B119,2013-02-22 17:55:00,
2013-02-22 13:00:00,36.4,22.6,30.36,East,98,2.0,5.0,57,0.00,,,0.00,WeatherCatV1.13B119,2013-02-22 18:00:00,
2013-02-22 13:05:00,36.5,22.7,30.36,ESE,119,2.0,5.0,57,0.00,,,0.00,WeatherCatV1.13B119,2013-02-22 18:05:00,
2013-02-22 13:10:00,36.6,22.4,30.35,NE,42,3.0,3.0,56,0.00,,,0.00,WeatherCatV1.13B119,2013-02-22 18:10:00,
2013-02-22 13:15:00,36.6,22.4,30.36,NNE,32,0.0,3.0,56,0.00,,,0.00,WeatherCatV1.13B119,2013-02-22 18:15:00,
2013-02-22 13:20:00,36.6,22.8,30.35,ENE,67,2.0,2.0,57,0.00,,,0.00,WeatherCatV1.13B119,2013-02-22 18:20:00,
2013-02-22 13:25:00,36.6,22.8,30.34,South,182,3.0,5.0,57,0.00,,,0.00,WeatherCatV1.13B119,2013-02-22 18:25:00,
2013-02-22 13:30:00,36.7,22.9,30.34,East,98,1.0,4.0,57,0.00,,,0.00,WeatherCatV1.13B119,2013-02-22 18:30:00,
2013-02-22 13:35:00,36.7,22.9,30.34,NNE,25,1.0,5.0,57,0.00,,,0.00,WeatherCatV1.13B119,2013-02-22 18:35:00,
2013-02-22 13:40:00,36.7,22.9,30.34,NNE,31,2.0,3.0,57,0.00,,,0.00,WeatherCatV1.13B119,2013-02-22 18:40:00,
2013-02-22 13:45:00,36.7,22.5,30.34,NE,42,2.0,5.0,56,0.00,,,0.00,WeatherCatV1.13B119,2013-02-22 18:45:00,
2013-02-22 13:50:00,36.7,22.5,30.34,South,175,1.0,4.0,56,0.00,,,0.00,WeatherCatV1.13B119,2013-02-22 18:50:00,
2013-02-22 13:55:00,36.8,22.6,30.35,SSE,163,1.0,2.0,56,0.00,,,0.00,WeatherCatV1.13B119,2013-02-22 18:55:00,
2013-02-22 14:00:00,37.0,22.8,30.35,East,84,1.0,5.0,56,0.00,,,0.00,WeatherCatV1.13B119,2013-02-22 19:00:00,
2013-02-22 14:05:00,37.3,23.1,30.34,ENE,60,1.0,3.0,56,0.00,,,0.00,WeatherCatV1.13B119,2013-02-22 19:05:00,
2013-02-22 14:10:00,37.3,23.1,30.34,East,90,1.0,3.0,56,0.00,,,0.00,WeatherCatV1.13B119,2013-02-22 19:10:00,
2013-02-22 14:15:00,37.2,23.0,30.34,NE,56,1.0,2.0,56,0.00,,,0.00,WeatherCatV1.13B119,2013-02-22 19:15:00,
2013-02-22 14:20:00,37.0,22.8,30.34,ENE,73,1.0,5.0,56,0.00,,,0.00,WeatherCatV1.13B119,2013-02-22 19:20:00,
2013-02-22 14:25:00,36.8,23.0,30.33,NE,38,2.0,3.0,57,0.00,,,0.00,WeatherCatV1.13B119,2013-02-22 19:25:00,
2013-02-22 14:30:00,36.7,22.9,30.34,East,98,2.0,3.0,57,0.00,,,0.00,WeatherCatV1.13B119,2013-02-22 19:30:00,
2013-02-22 14:35:00,36.8,23.4,30.34,NNE,31,1.0,2.0,58,0.00,,,0.00,WeatherCatV1.13B119,2013-02-22 19:35:00,
2013-02-22 14:40:00,36.9,23.5,30.34,South,173,1.0,1.0,58,0.00,,,0.00,WeatherCatV1.13B119,2013-02-22 19:40:00,
2013-02-22 14:45:00,36.9,23.5,30.33,NE,54,1.0,3.0,58,0.00,,,0.00,WeatherCatV1.13B119,2013-02-22 19:45:00,
2013-02-22 14:50:00,36.9,23.5,30.33,ESE,103,1.0,2.0,58,0.00,,,0.00,WeatherCatV1.13B119,2013-02-22 19:50:00,
2013-02-22 14:55:00,36.9,23.5,30.33,NE,53,1.0,2.0,58,0.00,,,0.00,WeatherCatV1.13B119,2013-02-22 19:55:00,
2013-02-22 15:00:00,36.9,23.9,30.32,ESE,104,0.0,1.0,59,0.00,,,0.00,WeatherCatV1.13B119,2013-02-22 20:00:00,
2013-02-22 15:05:00,36.9,23.5,30.33,NE,44,2.0,5.0,58,0.00,,,0.00,WeatherCatV1.13B119,2013-02-22 20:05:00,
2013-02-22 15:10:00,36.8,23.8,30.32,NE,44,7.0,7.0,59,0.00,,,0.00,WeatherCatV1.13B119,2013-02-22 20:10:00,
2013-02-22 15:15:00,36.7,23.7,30.32,NNE,33,1.0,3.0,59,0.00,,,0.00,WeatherCatV1.13B119,2013-02-22 20:15:00,
2013-02-22 15:20:00,36.6,23.6,30.32,ENE,64,1.0,3.0,59,0.00,,,0.00,WeatherCatV1.13B119,2013-02-22 20:20:00,
2013-02-22 15:25:00,36.7,23.7,30.33,East,83,0.0,3.0,59,0.00,,,0.00,WeatherCatV1.13B119,2013-02-22 20:25:00,
2013-02-22 15:30:00,36.9,23.9,30.33,East,88,1.0,5.0,59,0.00,,,0.00,WeatherCatV1.13B119,2013-02-22 20:30:00,
2013-02-22 15:35:00,36.8,23.8,30.33,NE,46,1.0,2.0,59,0.00,,,0.00,WeatherCatV1.13B119,2013-02-22 20:35:00,
2013-02-22 15:40:00,36.8,24.2,30.33,ENE,72,1.0,2.0,60,0.00,,,0.00,WeatherCatV1.13B119,2013-02-22 20:40:00,
2013-02-22 15:45:00,36.9,23.9,30.33,NE,38,2.0,2.0,59,0.00,,,0.00,WeatherCatV1.13B119,2013-02-22 20:45:00,
2013-02-22 15:50:00,36.9,24.3,30.33,SSE,155,0.0,1.0,60,0.00,,,0.00,WeatherCatV1.13B119,2013-02-22 20:50:00,
2013-02-22 15:55:00,37.0,24.4,30.33,North,11,2.0,6.0,60,0.00,,,0.00,WeatherCatV1.13B119,2013-02-22 20:55:00,
2013-02-22 16:00:00,36.9,24.3,30.33,NNE,27,0.0,2.0,60,0.00,,,0.00,WeatherCatV1.13B119,2013-02-22 21:00:00,
2013-02-22 16:05:00,36.9,24.3,30.33,NNE,27,0.0,1.0,60,0.00,,,0.00,WeatherCatV1.13B119,2013-02-22 21:05:00,
2013-02-22 16:10:00,36.9,24.7,30.33,NNE,27,0.0,2.0,61,0.00,,,0.00,WeatherCatV1.13B119,2013-02-22 21:10:00,
2013-02-22 16:15:00,36.8,24.2,30.34,NE,45,0.0,3.0,60,0.00,,,0.00,WeatherCatV1.13B119,2013-02-22 21:15:00,
2013-02-22 16:20:00,36.8,25.0,30.34,NNE,33,0.0,1.0,62,0.00,,,0.00,WeatherCatV1.13B119,2013-02-22 21:20:00,
2013-02-22 16:25:00,36.8,25.0,30.34,NE,35,0.0,1.0,62,0.00,,,0.00,WeatherCatV1.13B119,2013-02-22 21:25:00,
2013-02-22 16:31:00,36.8,25.0,30.33,NE,38,0.0,2.0,62,0.00,,,0.00,WeatherCatV1.13B119,2013-02-22 21:31:00,
2013-02-22 16:36:00,36.7,24.9,30.34,NE,43,0.0,2.0,62,0.00,,,0.00,WeatherCatV1.13B119,2013-02-22 21:36:00,
2013-02-22 16:41:00,36.6,24.8,30.33,North,0,0.0,1.0,62,0.00,,,0.00,WeatherCatV1.13B119,2013-02-22 21:41:00,
2013-02-22 16:46:00,36.6,24.8,30.33,North,0,1.0,2.0,62,0.00,,,0.00,WeatherCatV1.13B119,2013-02-22 21:46:00,
2013-02-22 16:51:00,36.6,25.2,30.33,North,0,0.0,1.0,63,0.00,,,0.00,WeatherCatV1.13B119,2013-02-22 21:51:00,
2013-02-22 16:56:00,36.5,25.1,30.33,East,93,0.0,2.0,63,0.00,,,0.00,WeatherCatV1.13B119,2013-02-22 21:56:00,
2013-02-22 17:01:00,36.4,25.0,30.33,NNE,23,1.0,2.0,63,0.00,,,0.00,WeatherCatV1.13B119,2013-02-22 22:01:00,
2013-02-22 17:06:00,36.4,25.4,30.34,South,177,0.0,1.0,64,0.00,,,0.00,WeatherCatV1.13B119,2013-02-22 22:06:00,
2013-02-22 17:11:00,36.3,25.3,30.34,ESE,110,0.0,1.0,64,0.00,,,0.00,WeatherCatV1.13B119,2013-02-22 22:11:00,
2013-02-22 17:16:00,36.2,25.2,30.34,ENE,75,2.0,3.0,64,0.00,,,0.00,WeatherCatV1.13B119,2013-02-22 22:16:00,
2013-02-22 17:21:00,36.2,25.6,30.34,ENE,75,1.0,1.0,65,0.00,,,0.00,WeatherCatV1.13B119,2013-02-22 22:21:00,
2013-02-22 17:26:00,36.1,25.5,30.34,SSE,150,0.0,2.0,65,0.00,,,0.00,WeatherCatV1.13B119,2013-02-22 22:26:00,
2013-02-22 17:31:00,36.1,25.5,30.34,SSE,150,0.0,1.0,65,0.00,,,0.00,WeatherCatV1.13B119,2013-02-22 22:31:00,
2013-02-22 17:36:00,36.0,25.8,30.34,SE,130,0.0,2.0,66,0.00,,,0.00,WeatherCatV1.13B119,2013-02-22 22:36:00,
2013-02-22 17:41:00,35.9,25.7,30.34,North,7,0.0,2.0,66,0.00,,,0.00,WeatherCatV1.13B119,2013-02-22 22:41:00,
2013-02-22 17:46:00,35.8,25.9,30.35,ENE,64,0.0,2.0,67,0.00,,,0.00,WeatherCatV1.13B119,2013-02-22 22:46:00,
2013-02-22 17:51:00,35.7,25.8,30.34,NE,52,1.0,2.0,67,0.00,,,0.00,WeatherCatV1.13B119,2013-02-22 22:51:00,
2013-02-22 17:56:00,35.6,26.1,30.35,NE,52,0.0,1.0,68,0.00,,,0.00,WeatherCatV1.13B119,2013-02-22 22:56:00,
2013-02-22 18:01:00,35.5,26.0,30.35,NE,56,1.0,2.0,68,0.00,,,0.00,WeatherCatV1.13B119,2013-02-22 23:01:00,
2013-02-22 18:06:00,35.4,25.9,30.34,NE,50,0.0,2.0,68,0.00,,,0.00,WeatherCatV1.13B119,2013-02-22 23:06:00,
2013-02-22 18:11:00,35.4,26.3,30.34,NE,50,1.0,2.0,69,0.00,,,0.00,WeatherCatV1.13B119,2013-02-22 23:11:00,
2013-02-22 18:16:00,35.3,25.8,30.33,NE,53,0.0,1.0,68,0.00,,,0.00,WeatherCatV1.13B119,2013-02-22 23:16:00,
2013-02-22 18:21:00,35.2,26.1,30.34,NE,53,0.0,0.0,69,0.00,,,0.00,WeatherCatV1.13B119,2013-02-22 23:21:00,
2013-02-22 18:26:00,35.2,26.1,30.33,ESE,116,1.0,2.0,69,0.00,,,0.00,WeatherCatV1.13B119,2013-02-22 23:26:00,
2013-02-22 18:31:00,35.1,26.0,30.33,ENE,63,0.0,1.0,69,0.00,,,0.00,WeatherCatV1.13B119,2013-02-22 23:31:00,
2013-02-22 18:36:00,35.1,26.0,30.33,ENE,63,1.0,2.0,69,0.00,,,0.00,WeatherCatV1.13B119,2013-02-22 23:36:00,
2013-02-22 18:41:00,35.1,26.0,30.34,ENE,63,1.0,2.0,69,0.00,,,0.00,WeatherCatV1.13B119,2013-02-22 23:41:00,
2013-02-22 18:46:00,35.1,26.0,30.34,ENE,63,2.0,2.0,69,0.00,,,0.00,WeatherCatV1.13B119,2013-02-22 23:46:00,
2013-02-22 18:51:00,35.1,26.0,30.34,ENE,63,1.0,2.0,69,0.00,,,0.00,WeatherCatV1.13B119,2013-02-22 23:51:00,
2013-02-22 18:56:00,35.1,26.3,30.34,ENE,63,0.0,2.0,70,0.00,,,0.00,WeatherCatV1.13B119,2013-02-22 23:56:00,
2013-02-22 19:01:00,35.1,26.3,30.34,ENE,63,1.0,2.0,70,0.00,,,0.00,WeatherCatV1.13B119,2013-02-23 00:01:00,
2013-02-22 19:06:00,35.1,26.3,30.34,ENE,63,1.0,2.0,70,0.00,,,0.00,WeatherCatV1.13B119,2013-02-23 00:06:00,
2013-02-22 19:11:00,35.1,26.3,30.33,ENE,63,0.0,1.0,70,0.00,,,0.00,WeatherCatV1.13B119,2013-02-23 00:11:00,
2013-02-22 19:16:00,35.1,26.3,30.33,ENE,59,2.0,2.0,70,0.00,,,0.00,WeatherCatV1.13B119,2013-02-23 00:16:00,
2013-02-22 19:21:00,35.1,26.7,30.33,NE,46,0.0,0.0,71,0.00,,,0.00,WeatherCatV1.13B119,2013-02-23 00:21:00,
2013-02-22 19:26:00,35.1,26.7,30.33,NE,46,1.0,1.0,71,0.00,,,0.00,WeatherCatV1.13B119,2013-02-23 00:26:00,
2013-02-22 19:31:00,35.1,26.7,30.33,ENE,61,0.0,1.0,71,0.00,,,0.00,WeatherCatV1.13B119,2013-02-23 00:31:00,
2013-02-22 19:36:00,35.1,27.0,30.33,ESE,109,1.0,1.0,72,0.00,,,0.00,WeatherCatV1.13B119,2013-02-23 00:36:00,
2013-02-22 19:41:00,35.2,27.4,30.34,NE,48,0.0,3.0,73,0.00,,,0.00,WeatherCatV1.13B119,2013-02-23 00:41:00,
2013-02-22 19:46:00,35.4,28.0,30.34,SE,129,0.0,1.0,74,0.00,,,0.00,WeatherCatV1.13B119,2013-02-23 00:46:00,
2013-02-22 19:51:00,35.5,28.0,30.34,SE,129,1.0,1.0,74,0.00,,,0.00,WeatherCatV1.13B119,2013-02-23 00:51:00,
2013-02-22 19:56:00,35.7,28.9,30.34,ESE,120,1.0,2.0,76,0.00,,,0.00,WeatherCatV1.13B119,2013-02-23 00:56:00,
2013-02-22 20:01:00,35.9,29.1,30.34,SE,131,0.0,2.0,76,0.00,,,0.00,WeatherCatV1.13B119,2013-02-23 01:01:00,
2013-02-22 20:06:00,36.0,29.2,30.34,SE,145,1.0,3.0,76,0.00,,,0.00,WeatherCatV1.13B119,2013-02-23 01:06:00,
2013-02-22 20:11:00,36.1,29.3,30.34,SSE,165,3.0,6.0,76,0.00,,,0.00,WeatherCatV1.13B119,2013-02-23 01:11:00,
2013-02-22 20:16:00,36.2,29.4,30.34,SSE,165,0.0,1.0,76,0.00,,,0.00,WeatherCatV1.13B119,2013-02-23 01:16:00,
2013-02-22 20:21:00,36.2,29.7,30.33,SE,138,0.0,1.0,77,0.00,,,0.00,WeatherCatV1.13B119,2013-02-23 01:21:00,
2013-02-22 20:26:00,36.2,29.7,30.33,ESE,105,1.0,4.0,77,0.00,,,0.00,WeatherCatV1.13B119,2013-02-23 01:26:00,
2013-02-22 20:31:00,36.3,29.8,30.33,NNE,17,3.0,3.0,77,0.00,,,0.00,WeatherCatV1.13B119,2013-02-23 01:31:00,
2013-02-22 20:36:00,36.3,29.8,30.33,South,172,1.0,3.0,77,0.00,,,0.00,WeatherCatV1.13B119,2013-02-23 01:36:00,
2013-02-22 20:41:00,36.3,29.8,30.33,South,188,1.0,5.0,77,0.00,,,0.00,WeatherCatV1.13B119,2013-02-23 01:41:00,
2013-02-22 20:46:00,36.3,30.1,30.33,SSE,152,0.0,2.0,78,0.00,,,0.00,WeatherCatV1.13B119,2013-02-23 01:46:00,
2013-02-22 20:51:00,36.3,30.1,30.33,SSE,163,1.0,2.0,78,0.00,,,0.00,WeatherCatV1.13B119,2013-02-23 01:51:00,
2013-02-22 20:56:00,36.3,30.1,30.33,SSW,206,0.0,3.0,78,0.00,,,0.00,WeatherCatV1.13B119,2013-02-23 01:56:00,
2013-02-22 21:01:00,36.3,30.1,30.33,SSW,206,0.0,1.0,78,0.00,,,0.00,WeatherCatV1.13B119,2013-02-23 02:01:00,
2013-02-22 21:06:00,36.3,30.1,30.33,SSE,161,1.0,2.0,78,0.00,,,0.00,WeatherCatV1.13B119,2013-02-23 02:06:00,
2013-02-22 21:11:00,36.4,30.2,30.33,SSE,159,0.0,2.0,78,0.00,,,0.00,WeatherCatV1.13B119,2013-02-23 02:11:00,
2013-02-22 21:16:00,36.4,30.2,30.32,SSE,159,1.0,1.0,78,0.00,,,0.00,WeatherCatV1.13B119,2013-02-23 02:16:00,
2013-02-22 21:21:00,36.4,30.2,30.32,SSE,159,0.0,1.0,78,0.00,,,0.00,WeatherCatV1.13B119,2013-02-23 02:21:00,
2013-02-22 21:26:00,36.4,30.2,30.32,SE,140,1.0,3.0,78,0.00,,,0.00,WeatherCatV1.13B119,2013-02-23 02:26:00,
2013-02-22 21:31:00,36.5,30.3,30.32,SE,140,0.0,1.0,78,0.00,,,0.00,WeatherCatV1.13B119,2013-02-23 02:31:00,
2013-02-22 21:36:00,36.5,30.3,30.32,SSE,158,1.0,2.0,78,0.00,,,0.00,WeatherCatV1.13B119,2013-02-23 02:36:00,
2013-02-22 21:41:00,36.5,30.3,30.31,SE,145,0.0,2.0,78,0.00,,,0.00,WeatherCatV1.13B119,2013-02-23 02:41:00,
2013-02-22 21:46:00,36.5,30.3,30.31,SE,145,0.0,1.0,78,0.00,,,0.00,WeatherCatV1.13B119,2013-02-23 02:46:00,
2013-02-22 21:51:00,36.5,30.3,30.31,SSE,168,1.0,3.0,78,0.00,,,0.00,WeatherCatV1.13B119,2013-02-23 02:51:00,
2013-02-22 21:56:00,36.5,30.3,30.31,SSE,168,0.0,1.0,78,0.00,,,0.00,WeatherCatV1.13B119,2013-02-23 02:56:00,
2013-02-22 22:01:00,36.5,30.3,30.31,SE,135,0.0,2.0,78,0.00,,,0.00,WeatherCatV1.13B119,2013-02-23 03:01:00,
2013-02-22 22:06:00,36.5,30.3,30.31,SSE,159,1.0,1.0,78,0.00,,,0.00,WeatherCatV1.13B119,2013-02-23 03:06:00,
2013-02-22 22:11:00,36.6,30.4,30.31,SW,214,1.0,3.0,78,0.00,,,0.00,WeatherCatV1.13B119,2013-02-23 03:11:00,
2013-02-22 22:16:00,36.6,30.4,30.31,NE,55,1.0,1.0,78,0.00,,,0.00,WeatherCatV1.13B119,2013-02-23 03:16:00,
2013-02-22 22:21:00,36.6,30.4,30.31,SSW,194,4.0,4.0,78,0.00,,,0.00,WeatherCatV1.13B119,2013-02-23 03:21:00,
2013-02-22 22:26:00,36.6,30.7,30.31,SW,219,1.0,3.0,79,0.00,,,0.00,WeatherCatV1.13B119,2013-02-23 03:26:00,
2013-02-22 22:31:00,36.6,30.7,30.31,East,93,2.0,3.0,79,0.00,,,0.00,WeatherCatV1.13B119,2013-02-23 03:31:00,
2013-02-22 22:36:00,36.6,30.7,30.31,SSE,158,0.0,2.0,79,0.00,,,0.00,WeatherCatV1.13B119,2013-02-23 03:36:00,
2013-02-22 22:41:00,36.6,30.7,30.31,SSE,158,0.0,1.0,79,0.00,,,0.00,WeatherCatV1.13B119,2013-02-23 03:41:00,
2013-02-22 22:46:00,36.6,30.7,30.31,SSE,158,2.0,2.0,79,0.00,,,0.00,WeatherCatV1.13B119,2013-02-23 03:46:00,
2013-02-22 22:51:00,36.6,30.7,30.31,SSE,158,0.0,1.0,79,0.00,,,0.00,WeatherCatV1.13B119,2013-02-23 03:51:00,
2013-02-22 22:56:00,36.6,30.7,30.31,South,172,2.0,5.0,79,0.00,,,0.00,WeatherCatV1.13B119,2013-02-23 03:56:00,
2013-02-22 23:01:00,36.6,30.7,30.30,ESE,114,0.0,1.0,79,0.00,,,0.00,WeatherCatV1.13B119,2013-02-23 04:01:00,
2013-02-22 23:06:00,36.6,30.7,30.30,ESE,109,1.0,1.0,79,0.00,,,0.00,WeatherCatV1.13B119,2013-02-23 04:06:00,
2013-02-22 23:11:00,36.6,30.7,30.30,SE,125,2.0,3.0,79,0.00,,,0.00,WeatherCatV1.13B119,2013-02-23 04:11:00,
2013-02-22 23:16:00,36.6,31.0,30.30,SE,125,0.0,2.0,80,0.00,,,0.00,WeatherCatV1.13B119,2013-02-23 04:16:00,
2013-02-22 23:21:00,36.6,31.0,30.30,SE,127,1.0,1.0,80,0.00,,,0.00,WeatherCatV1.13B119,2013-02-23 04:21:00,
2013-02-22 23:26:00,36.6,31.0,30.29,SE,129,1.0,2.0,80,0.00,,,0.00,WeatherCatV1.13B119,2013-02-23 04:26:00,
2013-02-22 23:31:00,36.5,30.9,30.29,East,79,1.0,1.0,80,0.00,,,0.00,WeatherCatV1.13B119,2013-02-23 04:31:00,
2013-02-22 23:36:00,36.6,31.0,30.29,NE,41,0.0,1.0,80,0.00,,,0.00,WeatherCatV1.13B119,2013-02-23 04:36:00,
2013-02-22 23:41:00,36.5,30.9,30.29,NE,41,0.0,1.0,80,0.00,,,0.00,WeatherCatV1.13B119,2013-02-23 04:41:00,
2013-02-22 23:46:00,36.5,30.9,30.28,NE,41,1.0,2.0,80,0.00,,,0.00,WeatherCatV1.13B119,2013-02-23 04:46:00,
2013-02-22 23:51:00,36.5,30.9,30.28,NE,41,1.0,1.0,80,0.00,,,0.00,WeatherCatV1.13B119,2013-02-23 04:51:00,
2013-02-22 23:56:00,36.5,30.9,30.28,NE,41,0.0,0.0,80,0.00,,,0.00,WeatherCatV1.13B119,2013-02-23 04:56:00,